Location: Pl�tzky
(52.0521°N, 11.8020°E)
Time: 08:54:09
(UTC+00:00)

USA 215 - Pass Details

Date: 22 November 2019
Orbit: 1101 x 1107 km, 123.0° (Epoch: 02 December)

Event Time Altitude Azimuth Distance (km) Brightness Sun altitude
Exits shadow 16:20:06 12° 73° (ENE) 2,796 4.7 -10.1°
Maximum altitude 16:26:02 59° 358° (N) 1,265 3.5 -10.9°
Drops below altitude 10° 16:32:25 10° 281° (W) 2,962 6.6 -11.8°
Sets 16:34:56 0° 278° (W) 3,920 7.5 -12.2°
